This demonstration page uses our WeatherBlox Daily Observations layout. Learn more.

Left ArrowRight Arrow

31.31129, -92.44514

Hourly Observations for July 24, 2022

Temp ( °F °C ) Dew Point ( °F °C ) Humidity (%) Winds ( mph kmh ) Pressure ( in mb ) Visibility ( mi km ) Precip ( " mm )
12:53 am 00:53 Clear 79 26.1 74 23.3 85 85 SE 5 7 30.06 1018 10 16 0.00 0.00
1:53 am 01:53 Clear 78 25.6 74 23.3 87 87 SSE 5 7 30.05 1018 10 16 0.00 0.00
2:53 am 02:53 Clear 77 25 74 23.3 90 90 SSE 3 6 30.05 1018 10 16 0.00 0.00
3:53 am 03:53 Clear 77 25 74 23.3 90 90 SSE 5 7 30.04 1017 9 14 0.00 0.00
4:53 am 04:53 Clear 77 25 74 23.3 90 90 Calm 30.04 1017 7 11 0.00 0.00
5:53 am 05:53 Clear 76 24.4 74 23.3 94 94 SE 3 6 30.06 1018 8 13 0.00 0.00
6:53 am 06:53 Sunny 77 25 74 23.3 90 90 Calm 30.06 1018 8 13 0.00 0.00
7:53 am 07:53 Sunny 79 26.1 75 23.9 88 88 SSE 5 7 30.08 1019 8 13 0.00 0.00
8:53 am 08:53 Sunny 83 28.3 76 24.4 79 79 Calm 30.09 1019 10 16 0.00 0.00
9:53 am 09:53 Sunny 88 31.1 77 25 70 70 SW 8 13 30.09 1019 10 16 0.00 0.00
10:53 am 10:53 Partly Cloudy 90 32.2 75 23.9 62 62 W 5 7 30.08 1019 10 16 0.00 0.00
11:53 am 11:53 Mostly Sunny 92 33.3 73 22.8 54 54 Calm 30.08 1019 10 16 0.00 0.00
12:53 pm 12:53 Mostly Sunny 94 34.4 73 22.8 51 51 WSW 5 7 30.06 1018 10 16 0.00 0.00
1:53 pm 13:53 Sunny 94 34.4 71 21.7 48 48 Calm 30.03 1017 10 16 0.00 0.00
2:53 pm 14:53 Sunny 97 36.1 72 22.2 45 45 SW 3 6 30.01 1016 10 16 0.00 0.00
3:30 pm 15:30 Partly Cloudy with Nearby Thunderstorms 96 35.6 70 21.1 43 43 SSW 7 11 29.99 1016 9 14 0.00 0.00
3:45 pm 15:45 Sunny 95 35 71 21.7 46 46 SSW 8 13 29.99 1016 9 14 0.00 0.00
3:53 pm 15:53 Sunny 94 34.4 73 22.8 51 51 S 17 28 30.01 1016 9 14 0.00 0.00
4:53 pm 16:53 Sunny 93 33.9 71 21.7 49 49 S 10 17 30.01 1016 10 16 0.00 0.00
5:53 pm 17:53 Sunny 94 34.4 71 21.7 48 48 S 12 19 29.99 1016 10 16 0.00 0.00
6:53 pm 18:53 Sunny 89 31.7 72 22.2 57 57 S 8 13 29.98 1015 10 16 0.00 0.00
7:53 pm 19:53 Sunny 87 30.6 74 23.3 65 65 S 5 7 30.00 1016 10 16 0.00 0.00
8:53 pm 20:53 Clear 84 28.9 75 23.9 74 74 S 6 9 30.01 1016 10 16 0.00 0.00
9:53 pm 21:53 Clear 82 27.8 74 23.3 77 77 S 5 7 30.03 1017 10 16 0.00 0.00
10:53 pm 22:53 Clear 80 26.7 74 23.3 82 82 S 5 7 30.02 1017 10 16 0.00 0.00
11:53 pm 23:53 Clear 80 26.7 74 23.3 82 82 SSE 3 6 30.03 1017 10 16 0.00 0.00

Powered by AerisWeather